{"data":{"norad_id":65216,"epoch":"2026-05-24T17:55:54.834816Z","epoch_age_seconds":100081,"freshness":"FRESH","line1":"1 65216U 25176U   26144.74716244  .00013654  00000+0  41457-3 0  9995","line2":"2 65216  53.1583 158.8495 0001264  83.9677 276.1469 15.34394431 44774","mean_motion":15.34394431,"eccentricity":0.0001264,"inclination_deg":53.1583,"raan_deg":158.8495,"arg_perigee_deg":83.9677,"mean_anomaly_deg":276.1469,"bstar":0.00041457,"rev_number":4477,"period_min":93.848098696599,"perigee_km":461.85510820021,"apogee_km":463.58447679735,"semimajor_km":6840.8567924988,"source":"CELESTRAK","updated_at":"2026-05-25T13:38:20.721456Z"}}